Orange, MA

8:50 PM EDT on October 19, 2017 (GMT -0400)
Orange Municipal

Weather History for KORE - September, 2014

Change the Weather History Date:

Tuesday, September 9, 2014

  Actual Average Record
Temperature  
Mean Temperature 58 °F -  
Max Temperature 70 °F 73 °F 91 °F (2002)
Min Temperature 46 °F 50 °F 37 °F (2013)
Degree Days  
Heating Degree Days 8    
Growing Degree Days 8 (Base 50)    
Moisture  
Dew Point 49 °F    
Average Humidity 79    
Maximum Humidity 97    
Minimum Humidity 54    
Precipitation  
Precipitation 0.00 in - - ()
Sea Level Pressure  
Sea Level Pressure 30.32 in    
Wind  
Wind Speed 2 mph (NE)    
Max Wind Speed 10 mph    
Max Gust Speed -    
Visibility 10 miles    
Events      
Averages and records for this station are not official NWS values.
T = Trace of Precipitation, MM = Missing Value Source: NWS Daily Summary

Daily Weather History Graph

Daily Weather History Graph

Search for Another Location

Airport or City:

Trip Planner

Search our weather history database for the weather conditions in past years. The results will help you decide how hot, cold, wet, or windy it might be!

Date:

Astronomy

Sep. 09, 2014 Rise Set
Actual Time 6:22 AM EDT 7:09 PM EDT
Civil Twilight 5:54 AM EDT 7:38 PM EDT
Nautical Twilight 5:20 AM EDT 8:11 PM EDT
Astronomical Twilight 4:44 AM EDT 8:46 PM EDT
Moon 7:25 PM EDT (9/9) 6:57 AM EDT (9/9)
Length of Visible Light 13h 44m
Length of Day
12h 47m
Waxing Gibbous, 99% of the Moon is Illuminated
Sep 9
Waxing Gibbous
Sep 15
Last Quarter
Sep 24
New
Oct 1
First Quarter
Oct 8
Full

Hourly Weather History & Observations

Time (EDT) Temp. Dew Point Humidity Pressure Visibility Wind Dir Wind Speed Gust Speed Precip Events Conditions
12:52 AM 52.0 °F 51.1 °F 97% 30.38 in 10.0 mi Calm Calm - N/A   Clear
1:52 AM 52.0 °F 50.0 °F 93% 30.37 in 10.0 mi Calm Calm - N/A   Clear
2:52 AM 50.0 °F 48.0 °F 93% 30.37 in 10.0 mi North 3.5 mph - N/A   Clear
3:52 AM 48.9 °F 46.9 °F 93% 30.37 in 10.0 mi Calm Calm - N/A   Clear
4:52 AM 48.0 °F 46.0 °F 93% 30.37 in 8.0 mi Calm Calm - N/A   Scattered Clouds
4:59 AM 48.0 °F 46.9 °F 96% 30.36 in 10.0 mi Calm Calm - N/A   Mostly Cloudy
5:26 AM 48.9 °F 48.0 °F 97% 30.36 in 10.0 mi Calm Calm - N/A   Scattered Clouds
5:52 AM 48.0 °F 46.9 °F 96% 30.36 in 10.0 mi Calm Calm - N/A   Scattered Clouds
6:52 AM 46.9 °F 46.0 °F 97% 30.37 in 10.0 mi Calm Calm - N/A   Clear
7:52 AM 54.0 °F 50.0 °F 86% 30.37 in 10.0 mi North 3.5 mph - N/A   Clear
8:52 AM 60.1 °F 52.0 °F 75% 30.36 in 10.0 mi North 5.8 mph - N/A   Clear
9:52 AM 64.9 °F 53.1 °F 65% 30.35 in 10.0 mi Variable 5.8 mph - N/A   Clear
11:52 AM 66.9 °F 50.0 °F 54% 30.33 in 10.0 mi ESE 10.4 mph - N/A   Mostly Cloudy
12:52 PM 68.0 °F 51.1 °F 55% 30.32 in 10.0 mi Variable 6.9 mph - N/A   Mostly Cloudy
1:52 PM 69.1 °F 53.1 °F 57% 30.29 in 10.0 mi East 5.8 mph - N/A   Mostly Cloudy
5:52 PM 66.9 °F 50.0 °F 54% 30.23 in 10.0 mi East 8.1 mph - N/A   Mostly Cloudy
6:52 PM 64.9 °F 48.9 °F 56% 30.23 in 10.0 mi East 8.1 mph - N/A   Overcast
7:52 PM 63.0 °F 46.9 °F 56% 30.25 in 10.0 mi Calm Calm - N/A   Mostly Cloudy
8:52 PM 57.9 °F 48.9 °F 72% 30.25 in 10.0 mi Calm Calm - N/A   Clear
9:52 PM 57.0 °F 50.0 °F 77% 30.25 in 10.0 mi Calm Calm - N/A   Overcast
10:52 PM 54.0 °F 51.1 °F 90% 30.24 in 10.0 mi Calm Calm - N/A   Clear
11:52 PM 52.0 °F 50.0 °F 93% 30.22 in 10.0 mi Calm Calm - N/A   Clear